This is the latest recevied weather packets stored in our database for station/object KK7MLS-13. If no packets are shown the sender has not sent any weather packets the latest 10 day(s).
| Time | Temp. | Humidity | Pressure | Rain* | Wind** | Luminosity | Snow |
|---|---|---|---|---|---|---|---|
| 1777049406 | 13.33° C | 63% | 1018.6 hPa | 0 mm | - | 137 W/m² | - |
| 1777049102 | 13.33° C | 63% | 1019 hPa | 0 mm | - | 69 W/m² | - |
| 1777048798 | 13.33° C | 60% | 1018.9 hPa | 0 mm | - | 66 W/m² | - |
| 1777048494 | 13.33° C | 63% | 1019 hPa | 0 mm | - | 66 W/m² | - |
| 1777048192 | 12.78° C | 63% | 1019 hPa | 0 mm | - | 411 W/m² | - |
| 1777047889 | 13.33° C | 63% | 1019 hPa | 0 mm | - | 398 W/m² | - |
| 1777047584 | 12.78° C | 65% | 1019.2 hPa | 0 mm | - | 383 W/m² | - |
| 1777047280 | 11.67° C | 69% | 1019 hPa | 0 mm | - | 370 W/m² | - |
| 1777046977 | 11.67° C | 71% | 1019.1 hPa | 0 mm | - | 353 W/m² | - |
| 1777046673 | 11.67° C | 73% | 1019.2 hPa | 0 mm | - | 340 W/m² | - |
| 1777046369 | 11.67° C | 72% | 1019.3 hPa | 0 mm | - | 326 W/m² | - |
| 1777046065 | 11.11° C | 77% | 1019.3 hPa | 0 mm | - | 310 W/m² | - |
| 1777045761 | 10.56° C | 76% | 1019.3 hPa | 0 mm | - | 297 W/m² | - |
| 1777045457 | 10.56° C | 78% | 1019.3 hPa | 0 mm | - | 281 W/m² | - |
| 1777045152 | 10.56° C | 77% | 1019.3 hPa | 0 mm | - | 265 W/m² | - |
| 1777044848 | 10° C | 79% | 1019.3 hPa | 0 mm | - | 244 W/m² | - |
| 1777044544 | 10° C | 83% | 1019.4 hPa | 0 mm | - | 192 W/m² | - |
| 1777044241 | 9.44° C | 84% | 1019.4 hPa | 0 mm | - | 151 W/m² | - |
| 1777043937 | 8.89° C | 85% | 1019.5 hPa | 0 mm | - | 123 W/m² | - |
| 1777043633 | 8.89° C | 87% | 1019.6 hPa | 0 mm | - | 104 W/m² | - |
| 1777043330 | 8.33° C | 92% | 1019.5 hPa | 0 mm | - | 93 W/m² | - |
| 1777043025 | 7.78° C | 94% | 1019.5 hPa | 0 mm | - | 84 W/m² | - |
| 1777042721 | 6.67° C | 96% | 1019.6 hPa | 0 mm | - | 78 W/m² | - |
| 1777042416 | 6.11° C | 96% | 1019.4 hPa | 0 mm | - | 68 W/m² | - |
| 1777042113 | 5.56° C | 96% | 1019.6 hPa | 0 mm | - | 29 W/m² | - |
* Rain latest hour (hover to see other rain measurements)
** Current wind speed in m/s (hover to see current wind gust speed)